Regional Weather Roundup
Issued by NWS Charleston, WV

Home | Current Version | Previous Version | Graphics & Text | Print | Product List | Glossary On
Versions: 1 2 3 4 5 6 7 8 9 10 11 12 13 14 15 16 17 18 19 20 21 22 23 24 25 26 27
000
ASUS41 KRLX 221610
RWRRLX
West Virginia Regional Weather Roundup
National Weather Service Charleston WV
1200 PM EDT TUE APR 22 2014

Note: "fair" indicates few or no clouds below 12,000 feet with no
significant weather and/or obstructions to visibility.

WVZ003-221700-
Northern Panhandle of West Virginia

CITY           SKY/WX    TMP DP  RH WIND       PRES   REMARKS
WHEELING       CLOUDY    59  55  87 W10G20    29.71F
$$

WVZ009-221700-
Northwest West Virginia

CITY           SKY/WX    TMP DP  RH WIND       PRES   REMARKS
PARKERSBURG    CLOUDY    61  56  83 SW8       29.78S
$$

WVZ006-221700-
Western West Virginia

CITY           SKY/WX    TMP DP  RH WIND       PRES   REMARKS
HUNTINGTON     CLOUDY    66  57  72 W10       29.80S
$$

WVZ015-221700-
West Central West Virginia

CITY           SKY/WX    TMP DP  RH WIND       PRES   REMARKS
CHARLESTON     CLOUDY    65  57  75 SW10      29.79F
$$

WVZ031-221700-
North Central West Virginia

CITY           SKY/WX    TMP DP  RH WIND       PRES   REMARKS
CLARKSBURG     LGT RAIN  57  55  93 SW9       29.76S FOG
MORGANTOWN     CLOUDY    57  54  89 S7        29.75S FOG
$$

WVZ035-042-045-221700-
South Central West Virginia

CITY           SKY/WX    TMP DP  RH WIND       PRES   REMARKS
BECKLEY        CLOUDY    60  49  66 W12       29.84S
BLUEFIELD      CLOUDY    62  51  67 NW10      29.86R
LEWISBURG      CLOUDY    63  44  49 W7        29.82R
$$

WVZ047-221700-
Northern Mountains of West Virginia

CITY           SKY/WX    TMP DP  RH WIND       PRES   REMARKS
ELKINS         LGT RAIN  57  52  83 W8        29.79S
$$

WVZ052-221700-
Eastern Panhandle of West Virginia

CITY           SKY/WX    TMP DP  RH WIND       PRES   REMARKS
MARTINSBURG    LGT RAIN  67  50  54 S5        29.68F
PETERSBURG     LGT RAIN  71  58  63 W8        29.73R
$$



USA.gov is the U.S. government's official web portal to all federal, state and local government web resources and services.